| time (UTC) | temp F | wind direction | speed knots | gust knots | rain 1hr in | rain 24hr in | rain mn in | humidity % | barometer mb |
| 20260504031555 | 60 | 5 | 12.2 | 15.6 | 0.00 | 0.00 | 0.00 | 35 | 920.6 |
| 20260504030049 | 60 | 28 | 10.4 | 13.9 | 0.00 | 0.00 | 0.00 | 33 | 920.5 |
| 20260504024531 | 62 | 52 | 7.0 | 11.3 | 0.00 | 0.00 | 0.00 | 30 | 920.4 |
| 20260504023031 | 63 | 15 | 11.3 | 15.6 | 0.00 | 0.00 | 0.00 | 27 | 920.5 |
| 20260504021512 | 65 | 355 | 5.2 | 8.7 | 0.00 | 0.00 | 0.00 | 24 | 920.3 |
| 20260504020013 | 68 | 355 | 7.8 | 13.9 | 0.00 | 0.00 | 0.00 | 20 | 920.4 |
| 20260504014604 | 70 | 344 | 11.3 | 16.5 | 0.00 | 0.00 | 0.00 | 19 | 920.4 |
| 20260504013059 | 71 | 345 | 10.4 | 16.5 | 0.00 | 0.00 | 0.00 | 19 | 920.4 |
| 20260504011535 | 72 | 339 | 12.2 | 20.0 | 0.00 | 0.00 | 0.00 | 19 | 920.4 |
| 20260504010034 | 73 | 350 | 12.2 | 17.4 | 0.00 | 0.00 | 0.00 | 19 | 920.4 |
| 20260504004515 | 73 | 355 | 13.0 | 20.0 | 0.00 | 0.00 | 0.00 | 18 | 920.6 |
| 20260504003014 | 74 | 339 | 13.9 | 20.9 | 0.00 | 0.00 | 0.00 | 18 | 920.7 |
| 20260504001606 | 74 | 336 | 13.9 | 21.7 | 0.00 | 0.00 | 0.00 | 18 | 920.9 |
| 20260504000120 | 74 | 314 | 11.3 | 20.9 | 0.00 | 0.00 | 0.00 | 18 | 920.9 |
| 20260503234537 | 75 | 350 | 8.7 | 23.5 | 0.00 | 0.00 | 0.00 | 18 | 920.8 |
| 20260503233040 | 74 | 306 | 14.8 | 20.9 | 0.00 | 0.00 | 0.00 | 18 | 920.9 |
| 20260503231517 | 75 | 327 | 15.6 | 23.5 | 0.00 | 0.00 | 0.00 | 18 | 921.0 |
| 20260503230016 | 75 | 329 | 12.2 | 19.1 | 0.00 | 0.00 | 0.00 | 18 | 920.9 |
| 20260503224557 | 75 | 325 | 14.8 | 19.1 | 0.00 | 0.00 | 0.00 | 18 | 921.0 |
| 20260503223055 | 75 | 338 | 15.6 | 22.6 | 0.00 | 0.00 | 0.00 | 19 | 921.1 |
| 20260503221536 | 74 | 332 | 7.8 | 14.8 | 0.00 | 0.00 | 0.00 | 19 | 921.3 |
| 20260503220034 | 74 | 317 | 7.8 | 20.0 | 0.00 | 0.00 | 0.00 | 19 | 921.5 |
| 20260503214520 | 74 | 332 | 12.2 | 21.7 | 0.00 | 0.00 | 0.00 | 19 | 921.7 |
| 20260503213021 | 74 | 302 | 13.9 | 20.0 | 0.00 | 0.00 | 0.00 | 18 | 921.7 |
| 20260503211516 | 74 | 309 | 11.3 | 15.6 | 0.00 | 0.00 | 0.00 | 17 | 922.1 |
| 20260503210015 | 73 | 334 | 11.3 | 16.5 | 0.00 | 0.00 | 0.00 | 17 | 922.3 |
| 20260503204519 | 74 | 300 | 15.6 | 26.1 | 0.00 | 0.00 | 0.00 | 16 | 922.2 |
| 20260503203014 | 73 | 297 | 14.8 | 20.9 | 0.00 | 0.00 | 0.00 | 17 | 922.4 |
| 20260503201510 | 73 | 305 | 10.4 | 21.7 | 0.00 | 0.00 | 0.00 | 18 | 922.6 |
| 20260503200009 | 73 | 315 | 10.4 | 25.2 | 0.00 | 0.00 | 0.00 | 18 | 922.6 |
| 20260503194548 | 72 | 288 | 13.0 | 19.1 | 0.00 | 0.00 | 0.00 | 19 | 922.9 |
| 20260503193049 | 72 | 278 | 12.2 | 16.5 | 0.00 | 0.00 | 0.00 | 19 | 923.0 |
| 20260503190024 | 72 | 299 | 13.0 | 19.1 | 0.00 | 0.00 | 0.00 | 21 | 923.3 |
| 20260503184506 | 72 | 252 | 7.8 | 19.1 | 0.00 | 0.00 | 0.00 | 21 | 923.5 |
| 20260503183002 | 72 | 205 | 11.3 | 19.1 | 0.00 | 0.00 | 0.00 | 22 | 923.6 |
| 20260503181603 | 72 | 261 | 16.5 | 20.9 | 0.00 | 0.00 | 0.00 | 22 | 923.8 |
| 20260503180041 | 71 | 269 | 9.6 | 20.0 | 0.00 | 0.00 | 0.00 | 25 | 924.0 |
| 20260503174528 | 71 | 283 | 8.7 | 15.6 | 0.00 | 0.00 | 0.00 | 25 | 924.0 |
| 20260503173024 | 70 | 273 | 9.6 | 16.5 | 0.00 | 0.00 | 0.00 | 27 | 924.0 |
| 20260503171559 | 68 | 252 | 7.8 | 11.3 | 0.00 | 0.00 | 0.00 | 33 | 924.3 |
| 20260503100107 | 46 | 259 | 9.6 | 12.2 | 0.00 | 0.00 | 0.00 | 73 | 926.3 |
| 20260503081511 | 44 | 286 | 7.8 | 8.7 | 0.00 | 0.00 | 0.00 | 70 | 926.9 |
| 20260503071535 | 46 | 288 | 7.0 | 7.8 | 0.00 | 0.00 | 0.00 | 67 | 927.2 |
| 20260503060116 | 50 | 261 | 7.0 | 8.7 | 0.00 | 0.00 | 0.00 | 56 | 927.6 |
| 20260503053013 | 53 | 207 | 4.3 | 6.1 | 0.00 | 0.00 | 0.00 | 51 | 927.7 |
| 20260503051515 | 54 | 213 | 5.2 | 7.8 | 0.00 | 0.00 | 0.00 | 48 | 927.8 |
| 20260503050055 | 52 | 215 | 8.7 | 13.0 | 0.00 | 0.00 | 0.00 | 50 | 927.8 |
| 20260503044556 | 52 | 84 | 4.3 | 8.7 | 0.00 | 0.00 | 0.00 | 51 | 927.8 |
| 20260503043040 | 54 | 107 | 3.5 | 4.3 | 0.00 | 0.00 | 0.00 | 50 | 927.8 |
| 20260503041536 | 53 | 61 | 1.7 | 4.3 | 0.00 | 0.00 | 0.00 | 50 | 927.8 |
| 20260503040026 | 52 | 86 | 2.6 | 5.2 | 0.00 | 0.00 | 0.00 | 51 | 927.8 |
| 20260503034518 | 52 | 69 | 3.5 | 7.0 | 0.00 | 0.00 | 0.00 | 51 | 927.7 |
| 20260503033003 | 52 | 68 | 2.6 | 7.0 | 0.00 | 0.00 | 0.00 | 51 | 927.6 |